Flag for U.S.A. Weather past 2 weeks in Jackson, Wyoming, U.S.A.

Now
43 °F

Clear.


Feels Like: 39 °F
Forecast: 38 / 80 °F
Wind: 7 mph from North

Location: Jackson Hole

Current Time: Jul 30, 2015 at 3:19:39 AM

Latest Report: Jul 30, 2015 at 2:55 AM


Visibility: 10 mi

Pressure: 30.45 "Hg (24.13 "Hg at 1901m altitude)

Humidity: 76%

Dew point: 36 °F

Location of JacksonLocation

Historic Weather in Jackson — Graph

°F

Jackson temperature yesterday

Maximum temperature yesterday: 73 °F (at 4:35 PM)
Minimum temperature yesterday: 32 °F (at 6:15 AM)
Average temperature yesterday: 53 °F

Past Weeks' High & Low Weather Summary

 TemperatureHumidityPressure
High82 °F (Jul 26, 4:15 PM)100% (Jul 16, 12:15 AM)30.47 "Hg (Jul 16, 12:15 AM)
Low30 °F (Jul 28, 5:35 AM)16% (Jul 26, 4:35 PM)29.93 "Hg (Jul 27, 4:15 AM)
Average57 °F67%30.19 "Hg
* Reported Jul 15 2:15 AM — Jul 30 2:15 AM, Jackson, Weather by CustomWeather, © 2015

Note: Actual official high and low records may vary slightly from our data, if they occured in-between our weather recording intervals... More about our weather records

Advertising

Jackson weather history for previous 24 hours

 ConditionsComfort  
Time TempWeatherWind HumidityBarometerVisibility
2:15 AM
Thu, Jul 30
43 °FClear.5 mph81%30.45 "Hg10 mi
1:55 AM43 °FClear.8 mph81%30.45 "Hg10 mi
1:35 AM43 °FClear.No wind81%30.45 "Hg10 mi
1:15 AM46 °FClear.8 mph71%30.44 "Hg10 mi
12:55 AM48 °FClear.No wind71%30.44 "Hg10 mi
12:35 AM45 °FClear.No wind81%30.44 "Hg10 mi
12:15 AM46 °FClear.3 mph76%30.43 "Hg10 mi
11:55 PM
Wed, Jul 29
46 °FClear.5 mph76%30.43 "Hg10 mi
11:35 PM45 °FClear.9 mph76%30.42 "Hg10 mi
11:15 PM46 °FClear.8 mph76%30.42 "Hg10 mi
10:55 PM46 °FClear.6 mph76%30.42 "Hg10 mi
10:35 PM52 °FClear.7 mph67%30.42 "Hg10 mi
9:35 PM61 °FSunny.No wind45%30.39 "Hg10 mi
9:15 PM59 °FSunny.3 mph45%30.38 "Hg10 mi
8:55 PM61 °FSunny.7 mph45%30.37 "Hg10 mi
8:35 PM63 °FSunny.6 mph42%30.37 "Hg10 mi
8:15 PM66 °FSunny.5 mph35%30.37 "Hg10 mi
7:55 PM70 °FSunny.6 mph31%30.37 "Hg10 mi
7:35 PM72 °FSunny.6 mph27%30.37 "Hg10 mi
7:15 PM72 °FSunny.6 mph27%30.36 "Hg10 mi
6:55 PM73 °FSunny.3 mph23%30.36 "Hg10 mi
6:35 PM73 °FSunny.5 mph23%30.37 "Hg10 mi
6:15 PM73 °FSunny.8 mph23%30.36 "Hg10 mi
5:55 PM73 °FSunny.5 mph23%30.37 "Hg10 mi
5:35 PM73 °FSunny.6 mph23%30.37 "Hg10 mi
5:15 PM73 °FSunny.8 mph23%30.37 "Hg10 mi
4:55 PM73 °FSunny.No wind23%30.37 "Hg10 mi
4:35 PM73 °FSunny.3 mph23%30.37 "Hg10 mi
3:55 PM72 °FSunny.No wind25%30.38 "Hg10 mi
3:35 PM72 °FSunny.3 mph25%30.38 "Hg10 mi
3:15 PM72 °FSunny.7 mph27%30.39 "Hg10 mi
2:55 PM70 °FSunny.3 mph29%30.39 "Hg10 mi
2:35 PM70 °FSunny.3 mph29%30.39 "Hg10 mi
2:15 PM70 °FSunny.5 mph29%30.40 "Hg10 mi
1:55 PM68 °FSunny.6 mph30%30.40 "Hg9 mi
1:35 PM66 °FSunny.7 mph30%30.41 "Hg10 mi
1:15 PM66 °FSunny.No wind28%30.42 "Hg10 mi
12:55 PM64 °FSunny.3 mph32%30.42 "Hg10 mi
12:35 PM63 °FSunny.No wind34%30.42 "Hg10 mi
12:15 PM63 °FSunny.No wind34%30.43 "Hg10 mi
11:55 AM61 °FSunny.6 mph39%30.43 "Hg10 mi
11:35 AM59 °FSunny.No wind42%30.44 "Hg10 mi
11:15 AM59 °FSunny.3 mph42%30.44 "Hg10 mi
10:55 AM57 °FSunny.No wind44%30.45 "Hg10 mi
10:35 AM55 °FSunny.3 mph47%30.45 "Hg10 mi
10:15 AM52 °FSunny.No wind54%30.45 "Hg10 mi
9:55 AM52 °FSunny.No wind54%30.46 "Hg10 mi
9:35 AM50 °FSunny.No wind58%30.46 "Hg10 mi
9:15 AM48 °FSunny.No wind58%30.47 "Hg10 mi
8:55 AM46 °FSunny.No wind62%30.47 "Hg10 mi
8:35 AM45 °FSunny.No wind66%30.47 "Hg10 mi
8:15 AM43 °FSunny.No wind71%30.47 "Hg10 mi
7:55 AM41 °FSunny.No wind76%30.47 "Hg6 mi
7:35 AM37 °FSunny.5 mph87%30.46 "Hg10 mi
7:15 AM36 °FSunny.No wind87%30.46 "Hg10 mi
6:55 AM34 °FClear.3 mph93%30.46 "Hg10 mi
6:35 AM32 °FClear.5 mph93%30.45 "Hg10 mi
6:15 AM32 °FClear.5 mph93%30.45 "Hg10 mi
5:55 AM34 °FClear.6 mph93%30.44 "Hg10 mi
5:35 AM34 °FClear.3 mph93%30.44 "Hg10 mi
5:15 AM34 °FClear.3 mph87%30.44 "Hg10 mi
4:55 AM34 °FClear.No wind87%30.43 "Hg10 mi
4:35 AM34 °FClear.5 mph93%30.43 "Hg10 mi
4:15 AM34 °FClear.7 mph93%30.43 "Hg10 mi
3:55 AM37 °FClear.No wind87%30.43 "Hg10 mi
3:35 AM36 °FClear.5 mph93%30.43 "Hg10 mi
3:15 AM34 °FClear.5 mph93%30.43 "Hg10 mi
Weather by CustomWeather, © 2015

See weather overviewHow to use our weather pages